ANA707 RJGG-RJCC

Flight info

Callsign ANA707
Flight time 1h 18m
Altitude 35000
Route KCC KROBE Y13 SIRAO Y139 NAVER
Aircraft B763/H-SDE3FGHIM3RWXY/LB1

Departure

Time 2026-04-28 03:13
Airport Chubu Centrair International Airport (RJGG)

Arrival

Time 2026-04-28 04:31
Airport New Chitose Airport (RJCC)
Time Latitude Longitude Altitude Speed Heading
2026-04-28 02:12 34.86431 136.80951 12 ft 0 kts 79°
2026-04-28 02:56 34.86429 136.80934 12 ft 2 kts 79°
2026-04-28 02:56 34.86425 136.80916 12 ft 2 kts 79°
2026-04-28 02:56 34.86422 136.80896 12 ft 2 kts 79°
2026-04-28 02:56 34.86421 136.80879 12 ft 2 kts 103°
2026-04-28 02:57 34.86427 136.80861 12 ft 2 kts 130°
2026-04-28 02:57 34.86440 136.80850 12 ft 2 kts 156°
2026-04-28 02:57 34.86454 136.80846 12 ft 2 kts 172°
2026-04-28 02:57 34.86470 136.80843 12 ft 2 kts 169°
2026-04-28 02:58 34.86485 136.80838 12 ft 2 kts 169°
2026-04-28 02:58 34.86500 136.80835 12 ft 2 kts 169°
2026-04-28 02:58 34.86515 136.80832 12 ft 2 kts 169°
2026-04-28 02:58 34.86531 136.80829 12 ft 2 kts 169°
2026-04-28 02:59 34.86545 136.80824 12 ft 2 kts 169°
2026-04-28 02:59 34.86555 136.80823 12 ft 0 kts 169°
2026-04-28 03:02 34.86548 136.80824 11 ft 3 kts 169°
2026-04-28 03:03 34.86508 136.80830 11 ft 6 kts 181°
2026-04-28 03:03 34.86480 136.80795 11 ft 6 kts 258°
2026-04-28 03:03 34.86469 136.80728 11 ft 8 kts 258°
2026-04-28 03:03 34.86446 136.80655 11 ft 8 kts 217°
2026-04-28 03:04 34.86382 136.80655 11 ft 10 kts 168°
2026-04-28 03:04 34.86303 136.80675 11 ft 12 kts 169°
2026-04-28 03:04 34.86207 136.80698 12 ft 14 kts 168°
2026-04-28 03:04 34.86099 136.80724 11 ft 16 kts 168°
2026-04-28 03:05 34.85979 136.80751 11 ft 18 kts 169°
2026-04-28 03:05 34.85847 136.80783 11 ft 20 kts 168°
2026-04-28 03:05 34.85699 136.80820 11 ft 21 kts 168°
2026-04-28 03:05 34.85536 136.80858 11 ft 23 kts 169°
2026-04-28 03:06 34.85361 136.80901 11 ft 25 kts 168°
2026-04-28 03:06 34.85180 136.80943 11 ft 26 kts 169°
2026-04-28 03:06 34.84992 136.80989 12 ft 28 kts 169°
2026-04-28 03:06 34.84791 136.81036 11 ft 29 kts 169°
2026-04-28 03:07 34.84619 136.81079 12 ft 16 kts 169°
2026-04-28 03:07 34.84497 136.81107 11 ft 18 kts 169°
2026-04-28 03:07 34.84380 136.81136 11 ft 9 kts 169°
2026-04-28 03:07 34.84337 136.81099 11 ft 8 kts 257°
2026-04-28 03:08 34.84331 136.81064 11 ft 0 kts 259°
2026-04-28 03:10 34.84331 136.81062 11 ft 1 kts 259°
2026-04-28 03:10 34.84326 136.81026 11 ft 6 kts 259°
2026-04-28 03:11 34.84316 136.80963 11 ft 8 kts 261°
2026-04-28 03:11 34.84337 136.80899 11 ft 8 kts 329°
2026-04-28 03:11 34.84376 136.80888 11 ft 3 kts 350°
2026-04-28 03:11 34.84414 136.80881 11 ft 7 kts 349°
2026-04-28 03:12 34.84506 136.80859 11 ft 20 kts 349°
2026-04-28 03:12 34.84829 136.80783 12 ft 79 kts 348°
2026-04-28 03:12 34.85618 136.80592 12 ft 141 kts 348°
2026-04-28 03:12 34.86715 136.80322 380 ft 166 kts 348°
2026-04-28 03:13 34.87874 136.79964 1171 ft 168 kts 338°
2026-04-28 03:13 34.89107 136.79439 1599 ft 198 kts 340°
2026-04-28 03:13 34.90526 136.78870 2213 ft 217 kts 341°
2026-04-28 03:13 34.92160 136.78220 2689 ft 252 kts 340°
2026-04-28 03:14 34.93879 136.77512 3649 ft 264 kts 341°
2026-04-28 03:14 34.95632 136.76836 4826 ft 269 kts 340°
2026-04-28 03:14 34.97528 136.76103 5727 ft 286 kts 340°
2026-04-28 03:14 34.99350 136.75427 7273 ft 275 kts 338°
2026-04-28 03:15 35.01217 136.74681 7959 ft 288 kts 337°
2026-04-28 03:15 35.03188 136.73901 7913 ft 294 kts 338°
2026-04-28 03:15 35.05177 136.73268 8043 ft 284 kts 347°
2026-04-28 03:15 35.07270 136.73315 7842 ft 300 kts
2026-04-28 03:16 35.09271 136.74394 7856 ft 300 kts 35°
2026-04-28 03:16 35.10878 136.76143 7937 ft 302 kts 41°
2026-04-28 03:16 35.12518 136.77945 7890 ft 305 kts 38°
2026-04-28 03:16 35.14148 136.79694 7962 ft 301 kts 39°
2026-04-28 03:17 35.15783 136.81303 8024 ft 304 kts 33°
2026-04-28 03:17 35.19199 136.84508 9791 ft 313 kts 34°
2026-04-28 03:17 35.20987 136.86168 10392 ft 338 kts 33°
2026-04-28 03:18 35.22939 136.88020 10887 ft 366 kts 34°
2026-04-28 03:18 35.24917 136.89925 12150 ft 368 kts 33°
2026-04-28 03:18 35.27020 136.91730 13057 ft 373 kts 22°
2026-04-28 03:18 35.29372 136.92956 14179 ft 370 kts 15°
2026-04-28 03:19 35.31784 136.94176 14819 ft 389 kts 17°
2026-04-28 03:19 35.34261 136.95770 15900 ft 397 kts 24°
2026-04-28 03:19 35.36733 136.97423 16591 ft 407 kts 20°
2026-04-28 03:19 35.39304 136.99042 17450 ft 414 kts 20°
2026-04-28 03:20 35.41863 137.00617 18389 ft 417 kts 20°
2026-04-28 03:20 35.44522 137.02225 19073 ft 427 kts 18°
2026-04-28 03:20 35.47169 137.03827 19888 ft 433 kts 18°
2026-04-28 03:20 35.49931 137.05482 20577 ft 442 kts 18°
2026-04-28 03:21 35.52680 137.07140 21356 ft 447 kts 17°
2026-04-28 03:21 35.55441 137.08803 22239 ft 448 kts 17°
2026-04-28 03:21 35.58302 137.10519 22813 ft 458 kts 18°
2026-04-28 03:21 35.61212 137.12276 23617 ft 462 kts 17°
2026-04-28 03:22 35.64078 137.14000 24201 ft 470 kts 17°
2026-04-28 03:22 35.67022 137.15784 25212 ft 466 kts 17°
2026-04-28 03:22 35.70019 137.17587 25723 ft 475 kts 16°
2026-04-28 03:22 35.73052 137.19428 26700 ft 472 kts 15°
2026-04-28 03:23 35.76011 137.21208 26961 ft 485 kts 16°
2026-04-28 03:23 35.79049 137.23056 27949 ft 481 kts 15°
2026-04-28 03:23 35.82060 137.24880 28584 ft 484 kts 14°
2026-04-28 03:23 35.85111 137.26723 29188 ft 489 kts 14°
2026-04-28 03:24 35.88162 137.28572 29754 ft 493 kts 15°
2026-04-28 03:24 35.91306 137.30473 29970 ft 506 kts 14°
2026-04-28 03:24 35.94432 137.32381 30718 ft 507 kts 14°
2026-04-28 03:24 35.97624 137.34322 31378 ft 509 kts 14°
2026-04-28 03:25 36.00686 137.36204 32629 ft 496 kts 14°
2026-04-28 03:25 36.03796 137.38095 33393 ft 493 kts 13°
2026-04-28 03:25 36.06931 137.40001 33774 ft 499 kts 13°
2026-04-28 03:25 36.10023 137.41896 34894 ft 486 kts 13°
2026-04-28 03:26 36.13084 137.43770 34998 ft 480 kts 13°
2026-04-28 03:26 36.16063 137.45584 35023 ft 481 kts 13°
2026-04-28 03:26 36.22121 137.49287 35007 ft 486 kts 13°
2026-04-28 03:27 36.28196 137.53020 35013 ft 479 kts 13°
2026-04-28 03:27 36.34298 137.56769 34998 ft 476 kts 13°
2026-04-28 03:28 36.40264 137.60443 34989 ft 476 kts 13°
2026-04-28 03:28 36.46254 137.64127 35000 ft 488 kts 13°
2026-04-28 03:29 36.52190 137.67806 34979 ft 478 kts 13°
2026-04-28 03:29 36.57118 137.71164 34963 ft 483 kts 19°
2026-04-28 03:30 36.62920 137.75629 34988 ft 490 kts 20°
2026-04-28 03:30 36.68780 137.80173 34990 ft 491 kts 19°
2026-04-28 03:31 36.74593 137.84697 34991 ft 491 kts 20°
2026-04-28 03:31 36.80588 137.89369 34968 ft 493 kts 19°
2026-04-28 03:32 36.86646 137.94109 34940 ft 488 kts 19°
2026-04-28 03:32 36.92535 137.98715 34926 ft 487 kts 19°
2026-04-28 03:33 36.95538 138.01065 34796 ft 489 kts 19°
2026-04-28 03:33 36.98516 138.03401 34927 ft 491 kts 19°
2026-04-28 03:33 37.04564 138.08156 34905 ft 490 kts 19°
2026-04-28 03:34 37.10404 138.12750 34916 ft 491 kts 19°
2026-04-28 03:34 37.16170 138.17296 34965 ft 490 kts 19°
2026-04-28 03:35 37.19017 138.19547 35400 ft 490 kts 19°
2026-04-28 03:35 37.21917 138.21846 35893 ft 476 kts 19°
2026-04-28 03:35 37.24793 138.24130 35867 ft 465 kts 18°
2026-04-28 03:35 37.27585 138.26332 35900 ft 467 kts 18°
2026-04-28 03:36 37.33343 138.30879 36141 ft 486 kts 19°
2026-04-28 03:36 37.36212 138.33160 36654 ft 486 kts 19°
2026-04-28 03:36 37.39113 138.35469 37189 ft 487 kts 19°
2026-04-28 03:37 37.41954 138.37730 37900 ft 483 kts 19°
2026-04-28 03:37 37.44746 138.39969 38987 ft 470 kts 19°
2026-04-28 03:37 37.47498 138.42154 38848 ft 472 kts 19°
2026-04-28 03:37 37.50308 138.44389 38944 ft 475 kts 18°
2026-04-28 03:38 37.56045 138.48970 38901 ft 475 kts 18°
2026-04-28 03:38 37.61783 138.53558 38920 ft 477 kts 19°
2026-04-28 03:39 37.67478 138.58128 38916 ft 473 kts 19°
2026-04-28 03:39 37.73116 138.62648 38911 ft 479 kts 19°
2026-04-28 03:40 37.78807 138.67229 38881 ft 483 kts 19°
2026-04-28 03:40 37.84457 138.71788 38899 ft 479 kts 19°
2026-04-28 03:41 37.89990 138.76256 38905 ft 475 kts 18°
2026-04-28 03:41 37.95709 138.80881 38884 ft 476 kts 19°
2026-04-28 03:42 38.01352 138.85452 38897 ft 479 kts 19°
2026-04-28 03:42 38.07096 138.90117 38886 ft 481 kts 19°
2026-04-28 03:43 38.12856 138.94804 38907 ft 484 kts 19°
2026-04-28 03:43 38.18520 138.99422 38899 ft 480 kts 18°
2026-04-28 03:44 38.24158 139.04021 38911 ft 482 kts 19°
2026-04-28 03:44 38.29892 139.08708 38917 ft 486 kts 18°
2026-04-28 03:45 38.35624 139.13414 38906 ft 476 kts 18°
2026-04-28 03:45 38.41189 139.17970 38893 ft 482 kts 19°
2026-04-28 03:46 38.46996 139.22746 38916 ft 487 kts 18°
2026-04-28 03:46 38.52689 139.27441 38926 ft 486 kts 19°
2026-04-28 03:47 38.58449 139.32191 38918 ft 493 kts 19°
2026-04-28 03:47 38.64249 139.36997 38895 ft 489 kts 19°
2026-04-28 03:48 38.69962 139.41727 38924 ft 491 kts 19°
2026-04-28 03:48 38.75821 139.46596 38909 ft 489 kts 19°
2026-04-28 03:49 38.81744 139.51524 38923 ft 490 kts 18°
2026-04-28 03:49 38.87465 139.56293 38919 ft 492 kts 18°
2026-04-28 03:50 38.93260 139.61133 38938 ft 492 kts 18°
2026-04-28 03:50 38.99021 139.65956 38910 ft 493 kts 18°
2026-04-28 03:51 39.04939 139.70799 38881 ft 484 kts 11°
2026-04-28 03:51 39.08025 139.72466 38928 ft 464 kts
2026-04-28 03:51 39.11177 139.73903 38832 ft 464 kts
2026-04-28 03:52 39.14337 139.75482 38950 ft 466 kts
2026-04-28 03:52 39.17491 139.77113 38886 ft 470 kts
2026-04-28 03:52 39.23546 139.80337 38879 ft 470 kts
2026-04-28 03:53 39.29652 139.83624 38862 ft 472 kts
2026-04-28 03:53 39.35853 139.86980 38884 ft 474 kts
2026-04-28 03:54 39.42083 139.90359 38903 ft 475 kts
2026-04-28 03:54 39.48161 139.93663 38925 ft 474 kts
2026-04-28 03:55 39.54351 139.97034 38941 ft 475 kts
2026-04-28 03:55 39.60478 140.00378 38905 ft 477 kts
2026-04-28 03:56 39.66602 140.03725 38896 ft 477 kts
2026-04-28 03:56 39.72734 140.07156 38937 ft 485 kts 12°
2026-04-28 03:57 39.78806 140.10925 38955 ft 485 kts 12°
2026-04-28 03:57 39.84906 140.14702 38901 ft 483 kts 12°
2026-04-28 03:58 39.90920 140.18422 38897 ft 484 kts 13°
2026-04-28 03:58 39.96986 140.22182 38912 ft 484 kts 13°
2026-04-28 03:59 40.03102 140.25981 38905 ft 488 kts 13°
2026-04-28 03:59 40.09226 140.29800 38901 ft 485 kts 13°
2026-04-28 04:00 40.15343 140.33612 38923 ft 488 kts 13°
2026-04-28 04:00 40.21463 140.37437 38928 ft 488 kts 13°
2026-04-28 04:01 40.27506 140.41229 38905 ft 480 kts 13°
2026-04-28 04:01 40.33524 140.44997 38929 ft 483 kts 14°
2026-04-28 04:02 40.39713 140.48892 38902 ft 483 kts 14°
2026-04-28 04:02 40.45972 140.52835 38925 ft 485 kts 14°
2026-04-28 04:03 40.49024 140.54762 38795 ft 487 kts 14°
2026-04-28 04:03 40.52099 140.56706 38560 ft 480 kts 14°
2026-04-28 04:03 40.55061 140.58588 38025 ft 477 kts 13°
2026-04-28 04:03 40.58080 140.60494 37309 ft 477 kts 13°
2026-04-28 04:04 40.61196 140.62466 36613 ft 481 kts 13°
2026-04-28 04:04 40.64299 140.64432 35929 ft 485 kts 12°
2026-04-28 04:04 40.67388 140.66391 35192 ft 489 kts 13°
2026-04-28 04:04 40.70554 140.68404 34458 ft 493 kts 12°
2026-04-28 04:05 40.73713 140.70465 33730 ft 500 kts 14°
2026-04-28 04:05 40.76947 140.72479 33144 ft 486 kts
2026-04-28 04:05 40.80202 140.73894 32592 ft 479 kts
2026-04-28 04:05 40.83378 140.75297 31949 ft 484 kts
2026-04-28 04:06 40.86573 140.76793 31375 ft 484 kts
2026-04-28 04:06 40.89890 140.78380 30709 ft 486 kts
2026-04-28 04:06 40.93210 140.80006 30101 ft 483 kts
2026-04-28 04:06 40.96519 140.81633 29547 ft 480 kts
2026-04-28 04:07 40.99764 140.83237 28938 ft 477 kts
2026-04-28 04:07 41.02983 140.84833 28355 ft 474 kts
2026-04-28 04:07 41.06161 140.86404 27757 ft 471 kts
2026-04-28 04:07 41.09317 140.87975 27168 ft 468 kts
2026-04-28 04:08 41.12420 140.89519 26599 ft 465 kts
2026-04-28 04:08 41.15474 140.91037 25998 ft 462 kts
2026-04-28 04:08 41.18607 140.92595 25394 ft 459 kts 10°
2026-04-28 04:08 41.21634 140.94110 24710 ft 452 kts
2026-04-28 04:09 41.24705 140.95650 24268 ft 435 kts
2026-04-28 04:09 41.27633 140.97111 23820 ft 429 kts
2026-04-28 04:09 41.30504 140.98543 23326 ft 427 kts 10°
2026-04-28 04:09 41.33346 140.99940 22841 ft 427 kts 10°
2026-04-28 04:10 41.36212 141.01349 22301 ft 422 kts 11°
2026-04-28 04:10 41.39067 141.02754 21815 ft 418 kts 10°
2026-04-28 04:10 41.41856 141.04126 21340 ft 415 kts 11°
2026-04-28 04:10 41.44562 141.05458 20844 ft 412 kts 11°
2026-04-28 04:11 41.47296 141.06808 20474 ft 406 kts 11°
2026-04-28 04:11 41.50034 141.08159 19887 ft 406 kts 12°
2026-04-28 04:11 41.52663 141.09457 19402 ft 402 kts 12°
2026-04-28 04:11 41.55396 141.10808 18902 ft 399 kts 12°
2026-04-28 04:12 41.58033 141.12112 18438 ft 395 kts 12°
2026-04-28 04:12 41.60699 141.13435 17954 ft 392 kts 12°
2026-04-28 04:12 41.63338 141.14745 17479 ft 388 kts 12°
2026-04-28 04:12 41.65838 141.15987 17064 ft 383 kts 12°
2026-04-28 04:13 41.68419 141.17267 16475 ft 385 kts 12°
2026-04-28 04:13 41.71015 141.18576 15914 ft 383 kts 12°
2026-04-28 04:13 41.73608 141.19888 15479 ft 378 kts 12°
2026-04-28 04:13 41.76091 141.21144 15059 ft 373 kts 12°
2026-04-28 04:14 41.78597 141.22414 14616 ft 368 kts 12°
2026-04-28 04:14 41.81034 141.23650 14234 ft 363 kts 12°
2026-04-28 04:14 41.83484 141.24890 13777 ft 361 kts 12°
2026-04-28 04:14 41.85902 141.26114 13384 ft 356 kts 12°
2026-04-28 04:15 41.88333 141.27348 12903 ft 357 kts 13°
2026-04-28 04:15 41.90761 141.28580 12415 ft 355 kts 13°
2026-04-28 04:15 41.95368 141.30959 11461 ft 352 kts 19°
2026-04-28 04:16 41.97508 141.32806 11108 ft 352 kts 37°
2026-04-28 04:16 41.99285 141.35045 10701 ft 343 kts 38°
2026-04-28 04:16 42.00984 141.37183 10381 ft 337 kts 39°
2026-04-28 04:16 42.02674 141.39336 10166 ft 324 kts 39°
2026-04-28 04:17 42.04273 141.41386 10110 ft 301 kts 39°
2026-04-28 04:17 42.05799 141.43339 9935 ft 294 kts 39°
2026-04-28 04:17 42.07309 141.45277 9780 ft 290 kts 39°
2026-04-28 04:17 42.08857 141.47263 9626 ft 293 kts 39°
2026-04-28 04:18 42.08976 141.47415 9607 ft 293 kts 39°
2026-04-28 04:18 42.09186 141.47685 9575 ft 292 kts 39°
2026-04-28 04:18 42.10699 141.49635 9354 ft 287 kts 39°
2026-04-28 04:18 42.12207 141.51562 9096 ft 282 kts 36°
2026-04-28 04:19 42.13868 141.52902 8917 ft 274 kts 18°
2026-04-28 04:19 42.15670 141.53923 8580 ft 275 kts 18°
2026-04-28 04:19 42.17519 141.54976 8242 ft 275 kts 18°
2026-04-28 04:19 42.19362 141.56006 7906 ft 275 kts 17°
2026-04-28 04:20 42.21193 141.57024 7541 ft 275 kts 18°
2026-04-28 04:20 42.23044 141.58049 7183 ft 276 kts 17°
2026-04-28 04:20 42.24901 141.59076 6764 ft 273 kts 18°
2026-04-28 04:20 42.26679 141.60060 6406 ft 267 kts 18°
2026-04-28 04:21 42.28425 141.61026 6095 ft 260 kts 18°
2026-04-28 04:21 42.30161 141.61987 5812 ft 256 kts 18°
2026-04-28 04:21 42.31848 141.62918 5529 ft 254 kts 18°
2026-04-28 04:21 42.33457 141.63814 5401 ft 239 kts 18°
2026-04-28 04:22 42.34936 141.64636 5331 ft 224 kts 17°
2026-04-28 04:22 42.36413 141.65451 4996 ft 225 kts 18°
2026-04-28 04:22 42.37926 141.66287 4680 ft 224 kts 18°
2026-04-28 04:22 42.39366 141.67085 4356 ft 224 kts 18°
2026-04-28 04:23 42.40871 141.67920 4063 ft 226 kts 18°
2026-04-28 04:23 42.42407 141.68771 3748 ft 229 kts 19°
2026-04-28 04:23 42.43909 141.69606 3452 ft 231 kts 19°
2026-04-28 04:23 42.45335 141.70398 3177 ft 232 kts 19°
2026-04-28 04:24 42.46871 141.71252 2891 ft 233 kts 19°
2026-04-28 04:24 42.48385 141.72096 2591 ft 232 kts 19°
2026-04-28 04:24 42.49910 141.72948 2324 ft 221 kts 19°
2026-04-28 04:24 42.51347 141.73669 2074 ft 210 kts
2026-04-28 04:25 42.52781 141.73618 2004 ft 191 kts 351°
2026-04-28 04:25 42.54079 141.73434 2053 ft 176 kts 352°
2026-04-28 04:25 42.55356 141.73245 1999 ft 177 kts 352°
2026-04-28 04:25 42.56580 141.73051 1995 ft 173 kts 351°
2026-04-28 04:26 42.57769 141.72858 1995 ft 168 kts 352°
2026-04-28 04:26 42.58901 141.72675 1981 ft 159 kts 351°
2026-04-28 04:26 42.59927 141.72499 2028 ft 153 kts 351°
2026-04-28 04:26 42.60925 141.72327 1996 ft 150 kts 351°
2026-04-28 04:27 42.61926 141.72154 1971 ft 137 kts 351°
2026-04-28 04:27 42.62833 141.71997 1993 ft 135 kts 351°
2026-04-28 04:27 42.63755 141.71834 2017 ft 139 kts 351°
2026-04-28 04:27 42.64722 141.71664 2000 ft 138 kts 351°
2026-04-28 04:28 42.65707 141.71492 1996 ft 134 kts 351°
2026-04-28 04:28 42.66685 141.71321 1981 ft 137 kts 351°
2026-04-28 04:28 42.67647 141.71152 1824 ft 140 kts 351°
2026-04-28 04:28 42.68547 141.70995 1626 ft 131 kts 351°
2026-04-28 04:29 42.69410 141.70844 1440 ft 122 kts 351°
2026-04-28 04:29 42.70271 141.70691 1294 ft 126 kts 351°
2026-04-28 04:29 42.71158 141.70534 1114 ft 128 kts 352°
2026-04-28 04:29 42.72017 141.70383 938 ft 127 kts 352°
2026-04-28 04:30 42.72903 141.70227 738 ft 120 kts 352°
2026-04-28 04:30 42.73690 141.70088 586 ft 117 kts 353°
2026-04-28 04:30 42.74493 141.69945 444 ft 117 kts 353°
2026-04-28 04:30 42.75312 141.69800 267 ft 119 kts 353°
2026-04-28 04:31 42.76124 141.69655 105 ft 117 kts 353°
2026-04-28 04:31 42.76870 141.69518 73 ft 72 kts 355°
2026-04-28 04:31 42.77235 141.69461 73 ft 35 kts 352°
2026-04-28 04:31 42.77517 141.69412 71 ft 44 kts 354°
2026-04-28 04:32 42.77725 141.69350 71 ft 8 kts 334°
2026-04-28 04:32 42.77822 141.69269 71 ft 22 kts 325°
2026-04-28 04:32 42.77924 141.69167 73 ft 0 kts 323°
2026-04-28 04:34 42.77940 141.69150 73 ft 9 kts 323°
2026-04-28 04:35 42.77981 141.69107 74 ft 16 kts 323°
2026-04-28 04:35 42.78046 141.69040 76 ft 24 kts 322°
2026-04-28 04:35 42.78146 141.68938 78 ft 32 kts 325°